Regional Weather Roundup
Issued by NWS

Home | Current Version | Previous Version | Graphics & Text | Print | Product List | Glossary On
Versions: 1 2 3 4 5 6 7 8 9 10 11 12 13 14 15 16 17 18 19 20 21 22 23 24 25 26 27 28 29 30 31 32 33 34 35 36 37 38 39 40 41 42 43 44 45 46 47 48 49 50
000
ASUS43 KOAX 211602
RWRNE

WEATHER ROUNDUP FOR NEBRASKA
NATIONAL WEATHER SERVICE OMAHA NE
1000 AM CST TUE FEB 21 2017

NOTES: SATELLITE DATA IS BEING USED TO AUGMENT CLOUD COVER ABOVE
       12000 FEET.
       "FAIR" INDICATES FEW OR NO CLOUDS BELOW 12,000 FEET WITH NO
       SIGNIFICANT WEATHER AND/OR OBSTRUCTIONS TO VISIBILITY.

  * THESE STATIONS DO NOT REPORT WEATHER SUCH AS RAIN...SNOW OR FOG.

NEZ001>004-019>022-054>056-211700-
NEBRASKA PANHANDLE

CITY           SKY/WX    TMP DP  RH WIND       PRES   REMARKS
SCOTTSBLUFF    SUNNY     59  30  33 W8        29.92F
ALLIANCE       SUNNY     57  29  34 SW12      29.91F
CHADRON        SUNNY     59  33  37 SW15      29.86S
KIMBALL        SUNNY     61  31  32 W21       30.00S
SIDNEY         SUNNY     60  29  30 W17       29.98S
$$

NEZ057>060-069>072-079>082-211700-
SOUTHWEST NEBRASKA

CITY           SKY/WX    TMP DP  RH WIND       PRES   REMARKS
NORTH PLATTE   SUNNY     49  29  46 CALM      29.96F
IMPERIAL       SUNNY     60  26  27 NW7       29.99R
LEXINGTON      SUNNY     56  21  26 SW10      29.97F
MCCOOK         SUNNY     50  25  37 SW10      29.99F
OGALLALA       SUNNY     49  25  39 W8        29.97S
$$

NEZ005>010-023>029-035>040-094-211700-
NORTH CENTRAL NEBRASKA

CITY           SKY/WX    TMP DP  RH WIND       PRES   REMARKS
VALENTINE      SUNNY     58  26  29 SW18G28   29.82F
AINSWORTH      SUNNY     58  29  33 SW17      29.84S
BROKEN BOW     SUNNY     55  24  30 SW15      29.93F
O`NEILL        SUNNY     56  26  32 SW14      29.86F
ORD            SUNNY     55  24  30 SW10      29.90F
THEDFORD       SUNNY     57  26  30 SW9       29.90F
$$

NEZ041-046>049-061>064-073>077-083>087-211700-
SOUTH CENTRAL NEBRASKA

CITY           SKY/WX    TMP DP  RH WIND       PRES   REMARKS
GRAND ISLAND   SUNNY     56  33  42 SW22G29   29.97F
AURORA         SUNNY     53  37  55 SW17      29.97F
HASTINGS       SUNNY     55  35  47 SW14G22   29.99F
HEBRON         SUNNY     54  39  57 W9        30.03R
HOLDREGE       SUNNY     51  23  33 SW13G18   29.99F
KEARNEY *      SUNNY     52  27  37 SW14      29.98F
YORK           SUNNY     52  39  62 SW13      29.99F
$$

NEZ011>018-030>034-042>045-211700-
NORTHEAST NEBRASKA

CITY           SKY/WX    TMP DP  RH WIND       PRES   REMARKS
NORFOLK        SUNNY     55  36  48 S16       29.90F
ALBION         SUNNY     55  32  41 SW17      29.92F
BLAIR          SUNNY     50  43  77 S9        29.98S
FREMONT        SUNNY     53  41  63 S9        29.97F
TEKAMAH        SUNNY     50  43  77 S10       29.96F
WAYNE          SUNNY     54  39  57 SW17G23   29.91S
$$

NEZ050>053-065>068-078-088>093-211700-
SOUTHEAST NEBRASKA

CITY           SKY/WX    TMP DP  RH WIND       PRES   REMARKS
LINCOLN        SUNNY     53  40  61 SW9       30.02R
OMAHA EPPLEY   MOSUNNY   47  41  80 S7        29.99F
BEATRICE       SUNNY     51  43  74 W5        30.02S
FALLS CITY     SUNNY     49  44  83 W6        30.03R
NEBRASKA CITY  SUNNY     52  40  63 SW8       30.01S
PLATTSMOUTH    SUNNY     54  40  60 SW7       30.01R
$$

NEZ044-045-051>053-067-211700-
OMAHA AREA

CITY           SKY/WX    TMP DP  RH WIND       PRES   REMARKS
OMAHA EPPLEY   MOSUNNY   47  41  80 S7        29.99F
BLAIR          SUNNY     50  43  77 S9        29.98S
FREMONT        SUNNY     53  41  63 S9        29.97F
MILLARD        SUNNY     52  44  72 CALM      29.99F
OFFUTT AFB     SUNNY    123 N/A N/A E3        30.01S
PLATTSMOUTH    SUNNY     54  40  60 SW7       30.01R
WAHOO          FAIR      55  40  58 SW9       29.98F
$$




USA.gov is the U.S. government's official web portal to all federal, state and local government web resources and services.